Location: Asheville, NC
(35.6000°N, 82.5500°W)
Time: 14:08:07
(UTC-04:00)

FALCONSAT 3 - Pass Details

Date: 14 March 2018
Orbit: 460 x 464 km, 35.4° (Epoch: 18 June)

Event Time Altitude Azimuth Distance (km) Brightness Sun altitude
Exits shadow 04:31:53 - 83° (E) 2,162 ? -38.2°
Enters shadow 05:30:03 -64° 266° (W) 11,986 ? -27.4°
Maximum altitude 06:05:52 90° 218° (SW) 465 ? -20.3°
Sets 06:11:43 0° 92° (E) 2,477 ? -19.2°
